Tracking 19484 objects as of 19-Jan-2019
HD Live streaming from Space Station
objects crossing your sky now

COSMOS 1718

Track COSMOS 1718 now!
10-day predictions
COSMOS 1718 is classified as:


NORAD ID: 16451
Int'l Code: 1986-002C
Perigee: 1,481.3 km
Apogee: 1,503.5 km
Inclination: 74.0 °
Period: 115.7 minutes
Semi major axis: 7863 km
RCS: 0.7208 m2 (medium)
Launch date: January 9, 1986
Source: Commonwealth of Independent States (former USSR) (CIS)
Launch site: PLESETSK MISSILE AND SPACE COMPLEX (PKMTR)
aabbcc
Your satellite tracking list
Your tracking list is empty




NASA's NSSDC Master Catalog

Two Line Element Set (TLE):
1 16451U 86002C   19018.51972442 -.00000011  00000-0  32219-4 0  9990
2 16451  73.9889  79.1978 0014167 298.7744 164.6331 12.45053730501240
Source of the keplerian elements: AFSPC